Location: Aalsum
(53.3404°N, 6.0062°E)
Time: 09:03:18
(UTC+00:00)

Meteor 2-1 Rocket - Pass Details

Date: 28 January 2023
Orbit: 829 x 907 km, 81.3° (Epoch: 19 March)

Event Time Altitude Azimuth Distance (km) Brightness Sun altitude
Rises 17:26:25 0° 348° (NNW) 3,531 7.4 -11.2°
Reaches altitude 10° 17:29:00 10° 354° (N) 2,578 6.6 -11.6°
Maximum altitude 17:34:41 49° 69° (ENE) 1,131 4.5 -12.4°
Drops below altitude 10° 17:40:13 10° 144° (SE) 2,514 6.4 -13.2°
Sets 17:42:43 0° 150° (SSE) 3,435 7.2 -13.5°
